Volver al catálogo

STARLINK-36300

ActivoComunicacionesSSO
NORAD 68303·PAYLOAD·🇺🇸 United States

Lanzado Mar 20, 2026 desde Vandenberg Space Force Base

Loading…

Próximos Pases (próximas 24 horas)

TLE

ActualizadoSource: CelesTrak SupGP

Época: Sep 14, 2026, 23:26 UTC

1 68303C 26057K   26257.97687500 -.00042513  00000+0 -13194-2 0  2577
2 68303  97.2862  23.4558 0001126  89.1599  36.5276 15.33469256    18

Sigue STARLINK-36300 en tiempo real con AllMySat

Download on the App Store